User: anonymous   Login
Location: Newark
(41.0400°S, 62.7845°W)
Time: 10:20:47
(UTC+00:00)
Language:

Vanguard 2 Rocket - Orbit

View from above orbital plane
View from above orbital plane
View from above satellite
View from above satellite

Ground track
Ground track

The orbit data is extracted from the following two-line orbital elements,

1 00012U 59001B   22276.76267062  .00000398  00000-0  22458-3 0  9997
2 00012  32.9002 297.1535 1664989 164.4513 201.4271 11.44699710376038
Epoch (UTC): 03 October 2022 18:18:14
Eccentricity: 0.1664989
inclination: 32.9002°
perigee height: 553 km
apogee height: 3323 km
right ascension of ascending node: 297.1535°
argument of perigee: 164.4513°
revolutions per day: 11.44699710
mean anomaly at epoch: 201.4271°
orbit number at epoch: 37603

The dashed part of the orbit path shows where the satellite is in the earth's shadow,  

DLR